FLOCK 2E'-13

Last updated on June 4, 2018, 12:15 a.m. UTC

1 41761U 98067KH  18154.58100078  .08792996  12263-4  92953-3 0  9996
2 41761  51.6029  31.3620 0010502 256.3270 103.6931 16.36585548 98182

Satellite is not in orbit.